{"data":{"norad_id":37188,"epoch":"2026-09-20T04:21:49.445856Z","epoch_age_seconds":41905,"freshness":"FRESH","line1":"1 37188U 10054A   26263.18182229 -.00000098  00000+0  34737-4 0  9994","line2":"2 37188  52.0036 179.4926 0000442  87.6628  85.7403 12.62267589734548","mean_motion":12.62267589,"eccentricity":4.42e-5,"inclination_deg":52.0036,"raan_deg":179.4926,"arg_perigee_deg":87.6628,"mean_anomaly_deg":85.7403,"bstar":3.4737e-5,"rev_number":73454,"period_min":114.08040676548,"perigee_km":1413.254448874,"apogee_km":1413.9432383225,"semimajor_km":7791.7358435982,"source":"CELESTRAK","updated_at":"2026-09-20T09:00:45.017799Z"}}